Probability
0 0 0 0 0 0 0 0 0 0 0 0 0 0 0 0 0 0 0 0 0 0 0 0 0 0 0 0 0 0 0 0 0 0 0 0 0 0 0 0 0 0 0 0 0 0 0 0 0
0 0 0 0 0 0 0 0 0 0 0 0 0 0 0 0 0 0 0 0 0 0 0 0 0 0 0 0 0 0 0 0 0 0 0 0 0 0 0 0 0 0 0 0 0 0 0 0 0
0 0 0 0 0 0 0 0 0 0 0 0 0 0 0 0 0 0 0 0 0 0 0 0 0 0 0 0 0 0 0 0 0 0 0 0 0 0 0 0 0 0 0 0 0 0 0 0 0
0 0 0 0 0 0 0 0 0 0 0 0 0 0 0 0 0 0 0 0 0 0 0 0 0 0 0 0 0 0 0 0 0 0 0 0 0 0 0 0 0 0 0 0 0 0 0 0 0
0 0 0 0 0 0 0 0 0 0 0 0 0 0 0 0 0 0 0 0 0 0 0 0 0 0 0 0 0 0 0 0 0 0 0 0 0 0 0 0 0 0 0 0 0 0 0 0 0
0 0 0 0 0 0 0 0 0 0 0 0 0 0 0 0 0 0 0 0 0 0 0 0 0 0 0 0 0 0 0 0 0 0 0 0 0 0 0 0 0 0 0 0 0 0 0 0 0
0 0 0 0 0 0 0 0 0 0 0 0 0 0 0 0 0 0 0 0 0 0 0 0 0 0 0 0 0 0 0 0 0 0 0 0 0 0 0 0 0 0 0 0 0 0 0 0 0
0 0 0 0 0 0 0 0 0 0 0 1 1 1 0 0 0 0 0 0 0 0 0 0 0 0 0 0 0 0 0 0 0 0 0 0 0 0 0 0 0 0 0 0 0 0 0 0 0
0 0 0 0 0 0 0 0 0 0 0 1 1 1 0 0 0 0 0 0 0 0 0 0 0 0 0 0 0 0 0 0 0 0 0 0 0 0 0 0 0 0 0 0 0 0 0 0 0
0 0 0 0 0 0 0 0 0 0 0 1 1 0 0 0 0 0 0 1 1 0 0 0 0 0 0 0 0 0 0 0 0 0 0 0 0 0 0 0 0 0 0 0 0 0 0 0 0
0 0 0 0 0 0 0 0 0 0 0 0 0 0 0 0 0 0 1 2 2 1 0 0 0 0 0 0 0 0 0 0 0 0 0 0 0 0 0 0 0 0 0 0 0 0 0 0 0
0 0 0 0 0 0 0 0 0 0 0 0 0 0 0 0 0 1 2 3 3 1 0 0 0 0 0 0 0 0 0 0 0 0 0 0 0 0 0 0 0 0 0 0 0 0 0 0 0
0 0 0 0 0 0 0 0 0 0 1 1 0 0 0 0 0 2 3 3 3 2 1 0 0 0 0 0 0 0 0 0 0 0 0 0 0 0 0 0 0 0 0 0 0 0 0 0 0
0 0 0 0 0 0 0 0 0 0 1 1 0 0 0 0 0 1 3 4 5 4 2 1 1 0 0 0 0 0 0 0 0 0 0 0 0 0 0 0 0 0 0 0 0 0 0 0 0
0 0 0 0 0 0 0 0 0 0 1 1 0 0 0 0 0 1 2 4 5 5 4 3 2 1 0 0 0 0 0 0 0 0 0 0 0 0 0 0 0 0 0 0 0 0 0 0 0
0 0 0 0 0 0 0 0 0 0 0 0 0 0 0 0 0 0 2 4 4 4 4 3 3 2 1 0 0 0 0 0 0 0 0 0 0 0 0 0 0 0 0 0 0 0 0 0 0
0 0 0 0 0 0 0 0 0 0 0 0 0 0 0 0 0 0 1 3 3 3 3 2 2 2 1 0 0 0 0 0 0 0 0 0 0 0 0 0 0 0 0 0 0 0 0 0 0
0 0 0 0 0 0 0 0 0 0 0 0 0 0 0 0 0 0 1 2 3 3 3 2 2 1 0 0 0 0 0 0 0 0 0 0 0 0 0 0 0 0 0 0 0 0 0 0 0
0 0 0 0 0 0 0 0 0 0 0 0 0 0 0 0 0 0 1 2 3 3 3 3 2 1 0 0 0 0 0 0 0 0 0 0 0 0 0 0 0 0 0 0 0 0 0 0 0
0 0 0 0 0 0 0 0 0 0 0 0 0 0 0 0 0 0 0 1 1 2 3 3 3 2 1 0 0 0 0 0 0 0 0 0 0 0 0 0 0 0 0 0 0 0 0 0 0
0 0 0 0 0 0 0 0 0 0 0 0 0 0 0 0 0 0 0 1 1 2 3 3 3 2 1 0 0 0 0 0 0 0 0 0 0 0 0 0 0 0 0 0 0 0 0 0 0
0 0 0 0 0 0 0 0 0 0 0 0 0 0 0 0 0 0 1 2 2 3 3 2 1 1 1 0 0 0 0 0 0 0 0 0 0 0 0 0 0 0 0 0 0 0 0 0 0
0 0 0 0 0 0 0 0 0 0 0 0 0 0 0 0 0 0 1 2 3 3 3 2 1 1 0 0 0 0 0 0 0 0 0 0 0 0 0 0 0 0 0 0 0 0 0 0 0
0 0 0 0 0 0 0 0 0 0 0 0 0 0 0 0 0 0 0 1 2 3 3 3 3 2 1 0 0 0 0 0 0 0 0 0 0 0 0 0 0 0 0 0 0 0 0 0 0
0 0 0 0 0 0 0 0 0 0 0 0 0 0 0 0 0 0 0 0 1 3 3 3 3 3 1 0 0 0 0 0 0 0 0 0 0 0 0 0 0 0 0 0 0 0 0 0 0
0 0 0 0 0 0 0 0 0 0 0 0 0 0 0 0 0 0 0 0 1 2 3 3 3 3 2 1 0 0 0 0 0 0 0 0 0 0 0 0 0 0 0 0 0 0 0 0 0
0 0 0 0 0 0 0 0 0 0 0 0 0 0 0 0 0 0 0 0 0 1 2 3 3 2 2 2 1 0 0 0 0 0 0 0 0 0 0 0 0 0 0 0 0 0 0 0 0
0 0 0 0 0 0 0 0 0 0 0 0 0 0 0 0 0 0 0 0 0 1 2 2 1 1 1 2 1 0 0 0 0 0 0 0 0 0 0 0 0 0 0 0 0 0 0 0 0
0 0 0 0 0 0 0 0 0 0 0 0 0 0 0 0 0 0 0 0 0 1 2 2 1 0 0 1 1 0 0 0 0 0 0 0 0 0 0 0 0 0 0 0 0 0 0 0 0
0 0 0 0 0 0 0 0 0 0 0 0 0 0 0 0 0 0 0 0 0 1 2 1 0 0 0 0 0 0 0 0 0 0 0 0 0 0 0 0 0 0 0 0 0 0 0 0 0
Wind_Speed
14 9 1 4 6 5 1 2 0 2 3 3 6 9 9 7 4 5 1 4 5 4 4 6 7 9 9 9 9 9 9 10 10 10 10 10 10 10 10 10 9 9 9 10 10 10 10 10 9
7 4 4 5 5 2 1 2 2 2 3 4 6 7 8 6 4 5 3 3 6 6 5 6 8 9 10 9 9 9 9 9 9 9 10 10 10 10 10 10 9 9 9 9 9 9 8 8 8
5 1 5 5 3 3 2 1 3 2 4 4 5 6 6 4 3 2 2 5 7 6 5 6 8 9 9 10 10 10 10 10 9 9 10 10 9 9 9 9 9 9 8 9 8 7 7 6 6
3 5 6 5 3 1 2 1 0 2 5 6 6 7 5 4 2 2 5 7 8 6 6 6 8 9 10 10 10 10 10 10 10 9 9 9 9 8 8 8 8 8 8 8 7 6 6 5 5
4 5 5 2 1 0 1 2 1 3 3 4 6 7 4 5 5 7 7 7 7 6 5 5 8 9 9 9 10 9 9 9 9 9 9 9 9 8 8 7 7 7 7 7 6 6 4 4 5
5 5 4 2 2 0 1 2 3 5 3 3 5 6 4 4 6 6 7 7 7 6 6 5 7 8 8 8 9 9 9 8 8 8 8 8 8 7 7 7 6 6 6 6 5 5 4 4 4
4 4 4 4 3 1 2 3 4 4 4 3 2 6 3 4 4 5 6 7 7 7 6 5 4 5 6 7 8 8 8 8 7 7 7 7 6 6 6 5 5 5 4 5 5 4 4 5 5
4 5 3 2 3 1 3 4 4 5 4 4 4 6 3 0 2 6 7 7 7 7 6 5 5 4 4 4 6 7 8 8 8 7 6 6 5 4 5 4 4 4 4 4 4 5 4 5 6
4 5 2 1 2 1 2 4 4 4 6 6 6 4 3 5 6 7 7 7 6 6 4 4 4 4 4 3 5 5 6 7 7 6 6 5 3 3 2 3 4 4 4 4 5 5 5 5 5
5 4 2 1 2 3 4 4 3 5 7 6 7 6 6 7 7 8 7 5 5 4 3 3 3 4 3 3 3 3 3 4 4 4 4 3 2 2 3 4 4 4 4 4 5 5 5 4 3
5 4 2 3 3 4 4 5 4 4 5 3 4 4 5 6 6 6 5 4 3 3 2 3 3 3 3 3 3 2 2 3 3 4 3 3 3 2 2 2 2 3 3 3 4 4 3 3 2
5 4 3 2 3 4 4 3 5 5 2 2 4 6 6 6 5 4 3 2 3 3 2 2 2 3 3 3 2 2 2 2 2 3 3 3 2 2 2 2 2 2 2 2 2 2 3 3 3
5 4 5 6 7 6 7 5 4 3 3 4 6 7 6 4 4 3 3 3 3 3 2 2 2 3 3 3 2 2 2 2 2 2 3 3 2 2 2 2 2 2 2 2 2 2 3 3 3
4 5 3 4 4 3 6 3 4 1 3 5 5 5 4 3 2 2 3 3 2 2 1 1 2 2 3 3 2 2 1 2 2 2 3 3 2 2 2 2 2 2 2 2 2 2 2 2 2
5 5 5 3 2 1 4 5 2 1 3 4 3 3 3 2 2 2 1 1 1 1 1 1 2 2 2 2 2 2 2 2 2 2 2 3 2 2 2 2 2 2 2 2 2 2 2 2 3
4 4 3 4 3 2 4 0 2 0 3 2 1 2 2 2 1 1 1 1 1 2 2 1 1 2 2 2 2 2 2 2 2 2 2 3 3 3 2 2 2 3 2 2 2 2 2 2 3
4 3 2 2 4 3 3 1 2 0 2 1 0 0 1 2 3 2 1 1 1 1 1 2 1 2 2 2 2 2 2 2 2 2 2 2 3 3 2 2 2 3 2 3 3 3 2 3 3
1 2 2 1 3 4 2 1 3 1 1 1 1 0 0 1 2 2 1 1 1 1 2 2 2 2 2 1 2 2 2 2 2 2 2 2 2 2 2 2 2 2 2 3 3 3 2 2 3
3 4 2 1 2 2 1 3 4 2 1 1 1 1 1 1 1 1 1 1 2 2 2 2 2 2 1 1 0 1 1 1 1 2 3 3 3 2 2 2 2 2 2 2 3 2 2 3 3
4 4 1 2 3 2 1 4 4 2 2 2 2 2 2 1 2 1 2 2 2 2 2 2 2 2 1 1 0 0 1 1 1 1 2 3 3 3 3 2 2 2 2 3 3 3 2 2 3
3 2 2 1 3 2 1 4 4 2 1 1 1 2 2 2 2 2 1 1 1 2 2 1 2 2 2 1 1 1 1 1 1 2 2 3 3 3 3 3 2 2 2 2 2 2 2 1 2
1 0 1 1 2 1 0 3 5 2 2 2 2 2 3 2 1 1 1 0 1 1 0 1 1 1 2 1 2 2 1 0 0 1 1 2 3 3 3 3 3 3 2 2 2 2 2 1 2
1 1 1 1 1 1 1 1 7 2 4 4 4 4 3 2 2 2 2 1 1 1 0 0 1 1 2 2 2 1 1 0 1 1 2 2 2 2 3 3 2 3 2 3 3 3 3 2 1
0 3 3 3 3 1 2 2 7 4 5 4 3 3 3 2 1 1 1 0 0 0 0 0 1 1 1 1 2 1 1 1 1 1 1 1 2 2 3 3 2 2 2 2 2 2 2 2 2
4 5 4 5 4 4 2 2 8 6 4 4 4 3 3 3 2 1 1 1 0 0 0 0 0 0 1 1 1 1 0 1 0 0 0 1 1 1 2 2 2 2 2 2 2 2 2 2 2
2 3 4 3 3 5 3 5 7 4 3 2 2 2 2 3 2 2 2 2 1 1 1 0 0 0 1 0 0 0 0 0 0 0 0 0 1 1 1 2 2 1 2 2 2 2 2 2 2
2 2 1 4 1 3 5 6 7 2 2 2 1 1 2 3 3 3 2 2 2 2 1 1 1 0 0 0 0 0 0 0 1 0 0 0 1 1 1 1 2 2 2 2 2 1 2 2 1
2 3 3 3 2 3 6 5 5 4 4 3 3 3 3 3 3 3 2 2 3 2 2 1 1 1 1 0 1 0 1 1 1 0 0 1 1 1 1 1 2 2 2 2 1 1 2 2 2
1 1 3 3 3 3 4 7 5 5 4 5 5 4 4 4 4 3 3 3 2 2 1 1 1 1 1 1 1 1 1 1 1 1 1 0 1 1 1 1 2 2 2 2 1 1 2 2 2
1 2 4 3 3 3 3 9 4 3 4 4 4 3 3 4 4 3 3 2 2 2 2 2 2 2 2 1 1 1 1 0 1 1 1 1 1 1 1 1 1 2 2 2 2 2 2 2 3
Wind_Direction
327 321 7 54 57 55 47 288 330 40 56 43 64 81 87 73 78 109 82 97 94 114 117 109 99 100 98 97 98 98 97 96 95 94 96 94 89 85 82 80 76 74 78 79 76 74 71 67 60
319 329 44 57 83 89 290 305 55 37 139 121 68 70 73 66 61 87 75 91 106 109 102 98 92 97 97 95 93 92 95 96 97 96 97 95 90 85 81 77 75 75 74 76 77 73 71 66 57
319 43 67 68 96 159 187 244 110 58 45 75 74 55 71 69 52 64 106 118 105 97 87 90 87 90 92 92 91 88 88 91 94 95 95 94 92 88 83 79 75 72 72 72 71 72 66 60 51
24 46 57 73 108 214 177 275 291 75 36 40 92 72 63 35 28 92 115 107 103 94 86 88 86 90 87 87 88 88 87 86 88 89 89 90 89 85 81 80 77 74 70 69 62 65 62 50 38
55 73 74 81 172 209 28 320 19 76 54 34 83 96 74 11 56 99 106 100 100 91 83 89 84 84 85 84 82 84 87 88 86 86 85 85 84 83 79 77 77 73 69 64 59 49 49 38 24
56 72 101 155 189 162 355 4 59 65 72 44 73 102 89 32 61 85 96 94 93 93 85 83 79 79 78 78 78 77 80 83 87 87 87 87 84 80 77 76 74 72 66 58 51 40 24 11 8
96 97 131 150 154 104 350 9 45 66 60 35 60 102 101 32 50 83 91 88 81 78 78 68 72 76 76 75 74 72 72 72 76 79 80 80 78 74 67 65 63 61 54 43 33 26 17 6 357
113 100 100 113 147 139 357 21 45 45 58 32 49 105 130 202 77 91 87 83 77 69 67 61 61 61 65 77 76 70 65 61 61 64 65 69 66 61 54 47 42 41 37 28 18 11 6 359 355
77 84 119 132 142 127 26 52 28 38 70 53 47 72 105 115 100 93 84 71 70 68 63 64 61 57 59 69 73 72 67 57 55 53 53 57 50 43 43 35 32 29 26 20 14 6 2 353 348
64 106 155 112 126 115 57 54 45 50 54 54 48 46 76 93 99 97 95 92 83 72 61 64 68 66 66 69 65 57 57 52 45 40 38 43 46 40 42 32 22 16 13 6 3 357 352 350 341
73 115 121 73 84 92 71 40 30 86 59 61 90 91 86 85 85 90 95 102 109 108 78 59 73 74 70 64 64 50 50 46 41 40 31 34 41 35 32 29 17 8 7 2 356 356 350 343 338
86 56 74 68 52 67 74 69 48 52 71 71 105 108 93 86 85 86 89 85 84 85 75 58 74 80 75 74 69 62 56 48 42 29 30 39 42 34 24 25 14 15 2 357 354 344 344 344 338
78 78 59 69 70 77 79 70 79 45 44 77 93 90 89 87 82 76 84 78 75 73 53 54 76 91 89 86 76 70 61 55 44 35 31 39 47 36 23 14 14 8 2 1 350 343 348 345 340
108 93 70 58 65 58 82 57 64 18 63 78 90 96 98 93 86 74 62 67 60 59 54 50 73 93 100 94 84 76 66 59 50 40 30 34 41 35 28 21 12 5 359 346 337 340 346 338 340
92 82 45 27 55 84 76 39 32 215 81 74 74 85 89 77 71 75 87 67 59 47 41 48 83 84 98 104 96 81 70 66 56 36 28 31 34 29 24 28 15 354 349 343 342 353 359 357 352
60 65 52 355 30 25 81 33 304 311 104 87 62 64 63 37 41 40 54 50 44 51 48 44 60 80 90 96 97 83 71 67 55 34 29 29 31 34 34 30 8 351 358 360 360 359 355 353 349
46 76 81 357 14 35 78 210 288 249 132 154 240 145 47 20 11 4 22 44 41 45 47 54 58 73 75 81 88 85 77 65 55 42 33 29 30 36 44 33 8 2 13 11 1 2 359 349 345
131 102 91 28 354 38 57 265 292 313 168 215 225 205 126 20 325 338 354 27 40 43 50 55 57 62 76 86 81 75 66 53 51 49 35 33 28 34 46 40 18 15 22 14 3 351 357 350 336
112 107 91 312 329 37 40 287 283 281 294 284 274 250 232 263 298 11 16 36 46 37 39 43 51 41 48 69 105 93 57 35 38 44 39 37 32 34 46 36 25 22 26 11 360 346 348 1 354
96 98 51 331 352 32 313 285 282 262 242 238 247 251 241 270 330 359 17 24 27 31 31 37 28 30 40 48 15 146 126 72 62 44 34 29 29 26 33 34 31 19 21 17 13 9 358 360 11
53 134 174 244 347 24 353 305 283 286 286 255 236 238 235 225 250 281 343 360 4 23 24 32 27 31 36 56 91 63 73 52 28 17 26 23 28 30 29 29 30 24 31 19 11 12 15 349 353
15 233 154 127 64 328 47 291 286 271 289 271 255 250 253 257 254 264 257 292 271 265 332 11 31 45 39 68 101 123 122 185 260 4 17 20 26 29 30 31 30 26 27 24 15 19 9 22 0
220 296 78 105 102 3 342 253 288 304 270 264 247 239 244 239 231 237 238 223 229 228 215 310 31 49 44 63 86 111 94 354 2 50 37 14 8 23 24 28 33 28 24 20 18 17 20 25 23
238 43 43 43 65 338 257 213 279 256 249 266 247 235 233 222 214 257 284 241 272 5 49 26 71 44 36 61 71 88 94 71 44 20 24 9 4 13 15 18 25 25 21 16 11 20 26 21 26
39 68 36 13 8 265 286 232 255 260 246 238 234 235 235 228 212 245 295 290 276 18 16 24 96 34 16 52 62 73 109 122 140 276 324 344 356 354 359 11 9 6 6 11 13 26 28 22 18
21 96 135 175 244 287 309 247 259 272 277 257 220 217 229 231 225 224 245 254 246 227 213 160 125 322 350 36 324 17 179 204 228 247 252 258 286 304 345 359 359 356 3 7 13 18 10 15 7
80 78 130 126 55 291 279 281 294 278 302 294 259 231 241 232 227 230 247 243 232 222 212 195 184 223 288 259 272 318 282 261 270 295 318 320 314 339 6 2 357 353 359 4 14 12 351 354 338
107 142 94 101 118 289 293 275 264 281 285 280 260 255 252 240 239 240 239 235 228 221 216 201 185 191 227 250 240 283 283 272 269 291 309 329 328 343 355 7 360 354 355 359 357 344 335 338 325
77 107 114 116 159 176 280 273 233 234 250 252 249 246 244 237 234 234 235 235 228 229 220 217 224 218 237 257 282 286 293 304 296 265 267 287 329 346 356 353 351 348 342 335 328 320 323 328 324
210 193 159 161 235 213 242 269 270 242 255 243 248 255 255 242 234 229 232 231 231 234 233 226 225 224 234 232 240 251 266 283 272 279 307 329 344 349 340 346 349 339 335 326 311 312 324 316 316